Time,TemperatureF,DewpointF,PressureIn,WindDirection,WindDirectionDegrees,WindSpeedMPH,WindSpeedGustMPH,Humidity,HourlyPrecipIn,Conditions,Clouds,dailyrainin,SoftwareType,DateUTC
2013-05-04 00:03:00,60.3,44.1,29.79,ENE,74,0.0,0.0,55,0.00,CLR,,0.00,WeatherDisplay:10.37,2013-05-04 07:03:00,
2013-05-04 00:08:00,60.4,44.2,29.78,WSW,244,2.3,2.3,55,0.00,CLR,,0.00,WeatherDisplay:10.37,2013-05-04 07:08:00,
2013-05-04 00:13:00,60.3,43.6,29.78,WSW,243,0.0,0.0,54,0.00,CLR,,0.00,WeatherDisplay:10.37,2013-05-04 07:13:00,
2013-05-04 00:18:00,60.2,43.0,29.78,WSW,243,0.0,0.0,53,0.00,CLR,,0.00,WeatherDisplay:10.37,2013-05-04 07:18:00,
2013-05-04 00:23:00,59.6,42.4,29.78,WSW,244,0.0,0.0,53,0.00,CLR,,0.00,WeatherDisplay:10.37,2013-05-04 07:23:00,
2013-05-04 00:28:00,59.0,42.4,29.78,WSW,243,0.0,0.0,54,0.00,CLR,,0.00,WeatherDisplay:10.37,2013-05-04 07:28:00,
2013-05-04 00:33:00,57.9,44.1,29.78,WSW,242,1.1,1.1,60,0.00,CLR,,0.00,WeatherDisplay:10.37,2013-05-04 07:33:00,
2013-05-04 00:38:00,57.5,43.7,29.78,WSW,242,0.0,0.0,60,0.00,CLR,,0.00,WeatherDisplay:10.37,2013-05-04 07:38:00,
2013-05-04 00:43:00,57.2,44.7,29.78,WSW,241,1.1,0.0,63,0.00,CLR,,0.00,WeatherDisplay:10.37,2013-05-04 07:43:00,
2013-05-04 00:48:00,56.9,44.8,29.77,SW,218,2.0,2.0,64,0.00,CLR,,0.00,WeatherDisplay:10.37,2013-05-04 07:48:00,
2013-05-04 00:53:00,57.0,44.9,29.77,NNW,329,0.0,0.0,64,0.00,CLR,,0.00,WeatherDisplay:10.37,2013-05-04 07:53:00,
2013-05-04 00:58:00,57.2,45.1,29.77,NNW,328,0.0,0.0,64,0.00,CLR,,0.00,WeatherDisplay:10.37,2013-05-04 07:58:00,
2013-05-04 01:03:00,57.3,44.8,29.77,NNW,328,0.0,0.0,63,0.00,CLR,,0.00,WeatherDisplay:10.37,2013-05-04 08:03:00,
2013-05-04 01:08:00,57.2,43.9,29.77,NNW,327,0.0,0.0,61,0.00,CLR,,0.00,WeatherDisplay:10.37,2013-05-04 08:08:00,
2013-05-04 01:13:00,56.5,41.0,29.77,NNW,327,0.0,0.0,56,0.00,CLR,,0.00,WeatherDisplay:10.37,2013-05-04 08:13:00,
2013-05-04 01:18:00,56.0,43.2,29.77,NNW,328,0.0,0.0,62,0.00,CLR,,0.00,WeatherDisplay:10.37,2013-05-04 08:18:00,
2013-05-04 01:23:00,55.8,43.4,29.77,NNW,327,0.0,0.0,63,0.00,CLR,,0.00,WeatherDisplay:10.37,2013-05-04 08:23:00,
2013-05-04 01:28:00,55.8,43.4,29.76,NNW,328,0.0,0.0,63,0.00,CLR,,0.00,WeatherDisplay:10.37,2013-05-04 08:28:00,
2013-05-04 01:33:00,55.5,43.5,29.76,NNW,327,0.0,0.0,64,0.00,CLR,,0.00,WeatherDisplay:10.37,2013-05-04 08:33:00,
2013-05-04 01:38:00,55.1,42.7,29.76,NNW,328,0.0,0.0,63,0.00,CLR,,0.00,WeatherDisplay:10.37,2013-05-04 08:38:00,
2013-05-04 01:43:00,54.7,42.8,29.76,NNW,327,0.0,0.0,64,0.00,CLR,,0.00,WeatherDisplay:10.37,2013-05-04 08:43:00,
2013-05-04 01:48:00,54.5,43.0,29.76,NNW,327,0.0,0.0,65,0.00,CLR,,0.00,WeatherDisplay:10.37,2013-05-04 08:48:00,
2013-05-04 01:53:00,54.3,43.6,29.76,NNW,327,0.0,0.0,67,0.00,CLR,,0.00,WeatherDisplay:10.37,2013-05-04 08:53:00,
2013-05-04 01:58:00,53.9,43.6,29.76,NNW,328,0.0,0.0,68,0.00,CLR,,0.00,WeatherDisplay:10.37,2013-05-04 08:58:00,
2013-05-04 02:03:00,53.6,43.7,29.76,NNW,328,0.0,0.0,69,0.00,CLR,,0.00,WeatherDisplay:10.37,2013-05-04 09:03:00,
2013-05-04 02:08:00,53.4,43.9,29.76,NNW,328,0.0,0.0,70,0.00,CLR,,0.00,WeatherDisplay:10.37,2013-05-04 09:08:00,
2013-05-04 02:13:00,53.3,44.1,29.76,NNW,328,0.0,0.0,71,0.00,CLR,,0.00,WeatherDisplay:10.37,2013-05-04 09:13:00,
2013-05-04 02:18:00,53.4,43.9,29.75,NNW,327,0.0,0.0,70,0.00,CLR,,0.00,WeatherDisplay:10.37,2013-05-04 09:18:00,
2013-05-04 02:23:00,53.2,42.9,29.75,NNW,328,0.0,0.0,68,0.00,CLR,,0.00,WeatherDisplay:10.37,2013-05-04 09:23:00,
2013-05-04 02:28:00,52.9,41.8,29.75,NNW,328,1.1,1.1,66,0.00,CLR,,0.00,WeatherDisplay:10.37,2013-05-04 09:28:00,
2013-05-04 02:33:00,52.9,42.6,29.75,NNW,328,1.1,1.1,68,0.00,CLR,,0.00,WeatherDisplay:10.37,2013-05-04 09:33:00,
2013-05-04 02:38:00,52.8,43.3,29.75,NNW,327,1.1,1.1,70,0.00,CLR,,0.00,WeatherDisplay:10.37,2013-05-04 09:38:00,
2013-05-04 02:43:00,53.2,43.7,29.75,NW,325,0.0,0.0,70,0.00,CLR,,0.00,WeatherDisplay:10.37,2013-05-04 09:43:00,
2013-05-04 02:48:00,53.0,42.7,29.75,NW,325,1.1,1.1,68,0.00,CLR,,0.00,WeatherDisplay:10.37,2013-05-04 09:48:00,
2013-05-04 02:53:00,52.7,42.8,29.75,NNW,340,1.1,1.1,69,0.00,CLR,,0.00,WeatherDisplay:10.37,2013-05-04 09:53:00,
2013-05-04 02:58:00,52.0,41.8,29.75,NNW,330,2.3,2.3,68,0.00,CLR,,0.00,WeatherDisplay:10.37,2013-05-04 09:58:00,
2013-05-04 03:03:00,52.0,42.9,29.74,NNW,329,1.1,1.1,71,0.00,CLR,,0.00,WeatherDisplay:10.37,2013-05-04 10:03:00,
2013-05-04 03:08:00,52.3,42.8,29.74,North,355,2.3,2.3,70,0.00,CLR,,0.00,WeatherDisplay:10.37,2013-05-04 10:08:00,
2013-05-04 03:13:00,51.8,41.6,29.74,NW,319,2.3,2.3,68,0.00,CLR,,0.00,WeatherDisplay:10.37,2013-05-04 10:13:00,
2013-05-04 03:18:00,52.2,43.1,29.74,North,6,2.0,2.0,71,0.00,CLR,,0.00,WeatherDisplay:10.37,2013-05-04 10:18:00,
2013-05-04 03:23:00,52.6,43.1,29.74,North,355,2.3,2.3,70,0.00,CLR,,0.00,WeatherDisplay:10.37,2013-05-04 10:23:00,
2013-05-04 03:28:00,52.3,41.7,29.74,NE,37,2.3,2.3,67,0.00,CLR,,0.00,WeatherDisplay:10.37,2013-05-04 10:28:00,
2013-05-04 03:33:00,51.6,41.8,29.74,NE,37,1.1,1.1,69,0.00,CLR,,0.00,WeatherDisplay:10.37,2013-05-04 10:33:00,
2013-05-04 03:38:00,51.4,42.7,29.74,NE,37,0.0,0.0,72,0.00,CLR,,0.00,WeatherDisplay:10.37,2013-05-04 10:38:00,
2013-05-04 03:43:00,51.5,42.8,29.73,NE,37,0.0,0.0,72,0.00,CLR,,0.00,WeatherDisplay:10.37,2013-05-04 10:43:00,
2013-05-04 03:48:00,51.3,42.6,29.74,NE,37,0.0,0.0,72,0.00,CLR,,0.00,WeatherDisplay:10.37,2013-05-04 10:48:00,
2013-05-04 03:53:00,51.2,42.8,29.73,NE,37,0.0,0.0,73,0.00,CLR,,0.00,WeatherDisplay:10.37,2013-05-04 10:53:00,
2013-05-04 03:58:00,51.5,43.1,29.73,NE,37,0.0,0.0,73,0.00,CLR,,0.00,WeatherDisplay:10.37,2013-05-04 10:58:00,
2013-05-04 04:03:00,51.5,43.1,29.74,NE,37,0.0,0.0,73,0.00,CLR,,0.00,WeatherDisplay:10.37,2013-05-04 11:03:00,
2013-05-04 04:08:00,51.5,43.1,29.73,NE,37,1.1,1.1,73,0.00,CLR,,0.00,WeatherDisplay:10.37,2013-05-04 11:08:00,
2013-05-04 04:13:00,51.7,43.3,29.73,WSW,246,2.3,2.3,73,0.00,CLR,,0.00,WeatherDisplay:10.37,2013-05-04 11:13:00,
2013-05-04 04:18:00,52.0,43.3,29.74,WSW,237,1.1,1.1,72,0.00,CLR,,0.00,WeatherDisplay:10.37,2013-05-04 11:18:00,
2013-05-04 04:23:00,52.1,43.3,29.73,SW,236,0.0,0.0,72,0.00,CLR,,0.00,WeatherDisplay:10.37,2013-05-04 11:23:00,
2013-05-04 04:28:00,51.4,41.9,29.73,SW,236,1.1,0.0,70,0.00,CLR,,0.00,WeatherDisplay:10.37,2013-05-04 11:28:00,
2013-05-04 04:33:00,50.3,42.3,29.73,ENE,68,3.5,3.5,74,0.00,CLR,,0.00,WeatherDisplay:10.37,2013-05-04 11:33:00,
2013-05-04 04:38:00,50.0,42.7,29.73,ENE,61,0.0,0.0,76,0.00,CLR,,0.00,WeatherDisplay:10.37,2013-05-04 11:38:00,
2013-05-04 04:43:00,49.7,42.8,29.73,East,98,2.3,2.3,77,0.00,CLR,,0.00,WeatherDisplay:10.37,2013-05-04 11:43:00,
2013-05-04 04:48:00,49.6,43.0,29.73,SSW,205,2.3,2.3,78,0.00,CLR,,0.00,WeatherDisplay:10.37,2013-05-04 11:48:00,
2013-05-04 04:53:00,49.6,43.0,29.73,SSW,207,1.1,1.1,78,0.00,CLR,,0.00,WeatherDisplay:10.37,2013-05-04 11:53:00,
2013-05-04 04:58:00,49.8,43.2,29.73,WSW,245,2.0,2.0,78,0.00,CLR,,0.00,WeatherDisplay:10.37,2013-05-04 11:58:00,
2013-05-04 05:03:00,50.0,43.7,29.73,SW,228,2.3,2.3,79,0.00,CLR,,0.00,WeatherDisplay:10.37,2013-05-04 12:03:00,
2013-05-04 05:08:00,49.4,42.1,29.73,WSW,245,3.5,3.5,76,0.00,CLR,,0.00,WeatherDisplay:10.37,2013-05-04 12:08:00,
2013-05-04 05:13:00,49.2,42.0,29.73,South,190,2.3,2.3,76,0.00,CLR,,0.00,WeatherDisplay:10.37,2013-05-04 12:13:00,
2013-05-04 05:19:00,48.3,40.7,29.73,ENE,77,8.1,8.1,75,0.00,CLR,,0.00,WeatherDisplay:10.37,2013-05-04 12:19:00,
2013-05-04 05:24:00,47.5,41.6,29.73,North,349,2.3,2.3,80,0.00,CLR,,0.00,WeatherDisplay:10.37,2013-05-04 12:24:00,
2013-05-04 05:29:00,47.3,41.4,29.73,NNE,22,6.9,6.9,80,0.00,CLR,,0.00,WeatherDisplay:10.37,2013-05-04 12:29:00,
2013-05-04 05:34:00,47.2,42.0,29.73,SW,221,0.0,0.0,82,0.00,CLR,,0.00,WeatherDisplay:10.37,2013-05-04 12:34:00,
2013-05-04 05:39:00,47.7,42.5,29.73,WSW,243,1.1,1.1,82,0.00,CLR,,0.00,WeatherDisplay:10.37,2013-05-04 12:39:00,
2013-05-04 05:44:00,47.7,41.8,29.73,ENE,60,3.0,3.0,80,0.00,CLR,,0.00,WeatherDisplay:10.37,2013-05-04 12:44:00,
2013-05-04 05:49:00,47.1,41.2,29.73,WSW,239,1.1,0.0,80,0.00,CLR,,0.00,WeatherDisplay:10.37,2013-05-04 12:49:00,
2013-05-04 05:54:00,47.2,42.3,29.73,SW,225,2.0,2.0,83,0.00,CLR,,0.00,WeatherDisplay:10.37,2013-05-04 12:54:00,
2013-05-04 05:59:00,47.4,41.2,29.73,ENE,68,3.5,3.5,79,0.00,CLR,,0.00,WeatherDisplay:10.37,2013-05-04 12:59:00,
2013-05-04 06:04:00,47.2,41.3,29.73,East,86,2.3,2.3,80,0.00,CLR,,0.00,WeatherDisplay:10.37,2013-05-04 13:04:00,
2013-05-04 06:08:00,47.1,41.6,29.73,NE,37,6.9,6.9,81,0.00,CLR,,0.00,WeatherDisplay:10.37,2013-05-04 13:08:00,
2013-05-04 06:13:00,47.9,43.0,29.72,WSW,239,2.0,2.0,83,0.00,CLR,,0.00,WeatherDisplay:10.37,2013-05-04 13:13:00,
2013-05-04 06:18:00,48.5,42.9,29.72,NNW,340,3.0,3.0,81,0.00,CLR,,0.00,WeatherDisplay:10.37,2013-05-04 13:18:00,
2013-05-04 06:23:00,48.8,42.6,29.72,North,349,3.5,3.5,79,0.00,CLR,,0.00,WeatherDisplay:10.37,2013-05-04 13:23:00,
2013-05-04 06:28:00,48.6,42.7,29.72,NNW,338,4.0,4.0,80,0.00,CLR,,0.00,WeatherDisplay:10.37,2013-05-04 13:28:00,
2013-05-04 06:33:00,50.3,43.0,29.72,NNW,334,4.6,4.6,76,0.00,CLR,,0.00,WeatherDisplay:10.37,2013-05-04 13:33:00,
2013-05-04 06:38:00,54.0,42.9,29.72,NNW,342,3.5,3.6,66,0.00,CLR,,0.00,WeatherDisplay:10.37,2013-05-04 13:38:00,
2013-05-04 06:43:00,52.7,42.8,29.72,NNW,340,3.5,3.5,69,0.00,CLR,,0.00,WeatherDisplay:10.37,2013-05-04 13:43:00,
2013-05-04 06:48:00,53.5,42.4,29.72,NW,326,5.0,5.0,66,0.00,CLR,,0.00,WeatherDisplay:10.37,2013-05-04 13:48:00,
2013-05-04 06:53:00,56.6,42.9,29.72,North,354,4.6,4.6,60,0.00,CLR,,0.00,WeatherDisplay:10.37,2013-05-04 13:53:00,
2013-05-04 06:58:00,57.4,42.3,29.71,NNW,338,5.8,5.8,57,0.00,CLR,,0.00,WeatherDisplay:10.37,2013-05-04 13:58:00,
2013-05-04 07:03:00,59.1,41.0,29.71,NNW,342,4.6,4.6,51,0.00,CLR,,0.00,WeatherDisplay:10.37,2013-05-04 14:03:00,
2013-05-04 07:08:00,63.0,40.7,29.71,North,359,10.4,10.4,44,0.00,CLR,,0.00,WeatherDisplay:10.37,2013-05-04 14:08:00,
2013-05-04 07:13:00,65.2,39.6,29.71,NNW,343,8.1,8.1,39,0.00,CLR,,0.00,WeatherDisplay:10.37,2013-05-04 14:13:00,
2013-05-04 07:18:00,69.7,36.0,29.71,NNW,347,8.1,8.1,29,0.00,CLR,,0.00,WeatherDisplay:10.37,2013-05-04 14:18:00,
2013-05-04 07:23:00,71.5,36.7,29.71,North,8,10.4,10.4,28,0.00,CLR,,0.00,WeatherDisplay:10.37,2013-05-04 14:23:00,
2013-05-04 07:28:00,72.2,37.3,29.70,North,10,9.2,9.2,28,0.00,CLR,,0.00,WeatherDisplay:10.37,2013-05-04 14:28:00,
2013-05-04 07:33:00,72.9,37.9,29.70,NW,304,8.1,8.1,28,0.00,CLR,,0.00,WeatherDisplay:10.37,2013-05-04 14:33:00,
2013-05-04 07:38:00,72.9,38.8,29.70,NW,322,4.6,4.6,29,0.00,CLR,,0.00,WeatherDisplay:10.37,2013-05-04 14:38:00,
2013-05-04 07:43:00,72.9,38.8,29.71,WNW,303,4.0,4.0,29,0.00,CLR,,0.00,WeatherDisplay:10.37,2013-05-04 14:43:00,
2013-05-04 07:48:00,73.4,37.4,29.70,NW,326,6.0,6.0,27,0.00,CLR,,0.00,WeatherDisplay:10.37,2013-05-04 14:48:00,
2013-05-04 07:53:00,74.4,37.3,29.70,NW,310,5.0,5.0,26,0.00,CLR,,0.00,WeatherDisplay:10.37,2013-05-04 14:53:00,
2013-05-04 07:58:00,75.7,37.4,29.70,NNW,340,7.0,7.0,25,0.00,CLR,,0.00,WeatherDisplay:10.37,2013-05-04 14:58:00,
2013-05-04 08:03:00,77.0,34.1,29.70,NNW,340,11.5,11.5,21,0.00,CLR,,0.00,WeatherDisplay:10.37,2013-05-04 15:03:00,
2013-05-04 08:08:00,77.6,34.6,29.70,NNW,334,9.2,9.2,21,0.00,CLR,,0.00,WeatherDisplay:10.37,2013-05-04 15:08:00,
2013-05-04 08:13:00,78.2,32.5,29.69,NNW,328,11.5,11.5,19,0.00,CLR,,0.00,WeatherDisplay:10.37,2013-05-04 15:13:00,
2013-05-04 08:18:00,78.5,34.1,29.70,NW,326,11.5,11.5,20,0.00,CLR,,0.00,WeatherDisplay:10.37,2013-05-04 15:18:00,
2013-05-04 08:23:00,78.8,31.7,29.69,North,357,19.6,19.6,18,0.00,CLR,,0.00,WeatherDisplay:10.37,2013-05-04 15:23:00,
2013-05-04 08:28:00,79.0,31.9,29.69,NNW,342,12.7,12.7,18,0.00,CLR,,0.00,WeatherDisplay:10.37,2013-05-04 15:28:00,
2013-05-04 08:33:00,79.1,31.9,29.69,NNE,15,12.7,12.7,18,0.00,CLR,,0.00,WeatherDisplay:10.37,2013-05-04 15:33:00,
2013-05-04 08:38:00,79.3,33.4,29.69,WNW,302,15.0,15.0,19,0.00,CLR,,0.00,WeatherDisplay:10.37,2013-05-04 15:38:00,
2013-05-04 08:43:00,79.6,33.7,29.69,NNW,330,12.7,12.7,19,0.00,CLR,,0.00,WeatherDisplay:10.37,2013-05-04 15:43:00,
2013-05-04 08:48:00,79.7,33.8,29.68,NNW,334,13.8,13.8,19,0.00,CLR,,0.00,WeatherDisplay:10.37,2013-05-04 15:48:00,
2013-05-04 08:53:00,79.8,33.9,29.68,NW,314,13.8,13.8,19,0.00,CLR,,0.00,WeatherDisplay:10.37,2013-05-04 15:53:00,
2013-05-04 08:58:00,80.1,34.1,29.68,North,1,12.7,12.7,19,0.00,CLR,,0.00,WeatherDisplay:10.37,2013-05-04 15:58:00,
2013-05-04 09:03:00,80.2,34.2,29.68,North,11,13.0,13.0,19,0.00,CLR,,0.00,WeatherDisplay:10.37,2013-05-04 16:03:00,
2013-05-04 09:08:00,80.3,35.6,29.68,ENE,57,11.5,11.5,20,0.00,CLR,,0.00,WeatherDisplay:10.37,2013-05-04 16:08:00,
2013-05-04 09:13:00,80.6,33.2,29.67,NNE,16,16.0,16.0,18,0.00,CLR,,0.00,WeatherDisplay:10.37,2013-05-04 16:13:00,
2013-05-04 09:18:00,80.5,31.7,29.67,NNE,25,13.8,13.8,17,0.00,CLR,,0.00,WeatherDisplay:10.37,2013-05-04 16:18:00,
2013-05-04 09:23:00,80.7,30.3,29.67,NNE,30,19.6,19.6,16,0.00,CLR,,0.00,WeatherDisplay:10.37,2013-05-04 16:23:00,
2013-05-04 09:28:00,80.8,33.3,29.67,North,11,18.4,18.4,18,0.00,CLR,,0.00,WeatherDisplay:10.37,2013-05-04 16:28:00,
2013-05-04 09:33:00,81.1,33.6,29.67,NE,36,12.7,12.7,18,0.00,CLR,,0.00,WeatherDisplay:10.37,2013-05-04 16:33:00,
2013-05-04 09:38:00,81.3,33.7,29.67,NNE,13,11.5,11.5,18,0.00,CLR,,0.00,WeatherDisplay:10.37,2013-05-04 16:38:00,
2013-05-04 09:43:00,81.5,32.5,29.67,ENE,70,15.0,15.0,17,0.00,CLR,,0.00,WeatherDisplay:10.37,2013-05-04 16:43:00,
2013-05-04 09:48:00,81.6,34.0,29.67,NNW,345,11.0,11.0,18,0.00,CLR,,0.00,WeatherDisplay:10.37,2013-05-04 16:48:00,
2013-05-04 09:53:00,81.8,32.7,29.67,NNW,329,6.9,6.9,17,0.00,CLR,,0.00,WeatherDisplay:10.37,2013-05-04 16:53:00,
2013-05-04 09:58:00,81.9,32.8,29.67,North,353,15.0,15.0,17,0.00,CLR,,0.00,WeatherDisplay:10.37,2013-05-04 16:58:00,
2013-05-04 10:03:00,82.0,31.4,29.66,North,8,10.0,10.0,16,0.00,CLR,,0.00,WeatherDisplay:10.37,2013-05-04 17:03:00,
2013-05-04 10:08:00,82.2,33.0,29.66,NNW,347,12.7,12.7,17,0.00,CLR,,0.00,WeatherDisplay:10.37,2013-05-04 17:08:00,
2013-05-04 10:13:00,82.4,31.7,29.66,NNW,331,12.0,12.0,16,0.00,CLR,,0.00,WeatherDisplay:10.37,2013-05-04 17:13:00,
2013-05-04 10:18:00,82.6,31.8,29.66,NNE,17,12.7,12.7,16,0.00,CLR,,0.00,WeatherDisplay:10.37,2013-05-04 17:18:00,
2013-05-04 10:23:00,82.8,34.9,29.66,NE,43,11.5,11.5,18,0.00,CLR,,0.00,WeatherDisplay:10.37,2013-05-04 17:23:00,
2013-05-04 10:28:00,82.9,32.1,29.66,NNE,18,12.7,12.7,16,0.00,CLR,,0.00,WeatherDisplay:10.37,2013-05-04 17:28:00,
2013-05-04 10:33:00,83.1,32.2,29.66,NNE,23,11.5,11.5,16,0.00,CLR,,0.00,WeatherDisplay:10.37,2013-05-04 17:33:00,
2013-05-04 10:38:00,83.6,34.2,29.66,WNW,283,9.2,9.2,17,0.00,CLR,,0.00,WeatherDisplay:10.37,2013-05-04 17:38:00,
2013-05-04 10:43:00,83.6,34.2,29.66,NNW,333,10.4,10.4,17,0.00,CLR,,0.00,WeatherDisplay:10.37,2013-05-04 17:43:00,
2013-05-04 10:48:00,83.9,34.4,29.66,NNE,32,10.4,10.4,17,0.00,CLR,,0.00,WeatherDisplay:10.37,2013-05-04 17:48:00,
2013-05-04 10:53:00,84.1,36.0,29.66,NNW,339,11.5,11.5,18,0.00,CLR,,0.00,WeatherDisplay:10.37,2013-05-04 17:53:00,
2013-05-04 10:58:00,84.5,34.9,29.66,NNW,335,17.3,17.3,17,0.00,CLR,,0.00,WeatherDisplay:10.37,2013-05-04 17:58:00,
2013-05-04 11:03:00,84.3,31.6,29.66,NNW,342,11.5,11.5,15,0.00,CLR,,0.00,WeatherDisplay:10.37,2013-05-04 18:03:00,
2013-05-04 11:08:00,84.6,35.0,29.65,North,354,11.5,11.5,17,0.00,CLR,,0.00,WeatherDisplay:10.37,2013-05-04 18:08:00,
2013-05-04 11:13:00,84.7,31.9,29.65,WNW,285,15.0,15.0,15,0.00,CLR,,0.00,WeatherDisplay:10.37,2013-05-04 18:13:00,
2013-05-04 11:18:00,84.7,33.5,29.65,NNW,333,11.5,11.5,16,0.00,CLR,,0.00,WeatherDisplay:10.37,2013-05-04 18:18:00,
2013-05-04 11:23:00,85.3,32.4,29.65,NW,322,15.0,15.0,15,0.00,CLR,,0.00,WeatherDisplay:10.37,2013-05-04 18:23:00,
2013-05-04 11:28:00,85.4,30.8,29.65,NW,322,11.5,11.5,14,0.00,CLR,,0.00,WeatherDisplay:10.37,2013-05-04 18:28:00,
2013-05-04 11:33:00,85.7,32.7,29.65,NNE,32,8.1,8.5,15,0.00,CLR,,0.00,WeatherDisplay:10.37,2013-05-04 18:33:00,
2013-05-04 11:38:00,85.8,32.8,29.64,North,4,9.2,9.2,15,0.00,CLR,,0.00,WeatherDisplay:10.37,2013-05-04 18:38:00,
2013-05-04 11:43:00,85.9,32.9,29.64,NE,48,10.4,10.4,15,0.00,CLR,,0.00,WeatherDisplay:10.37,2013-05-04 18:43:00,
2013-05-04 11:48:00,85.8,31.1,29.64,North,4,7.0,7.0,14,0.00,CLR,,0.00,WeatherDisplay:10.37,2013-05-04 18:48:00,
2013-05-04 11:53:00,85.8,32.8,29.64,NE,40,4.6,4.6,15,0.00,CLR,,0.00,WeatherDisplay:10.37,2013-05-04 18:53:00,
2013-05-04 11:58:00,85.9,32.9,29.63,NNW,336,8.1,8.1,15,0.00,CLR,,0.00,WeatherDisplay:10.37,2013-05-04 18:58:00,
2013-05-04 12:03:00,86.3,33.2,29.63,North,352,5.8,5.8,15,0.00,CLR,,0.00,WeatherDisplay:10.37,2013-05-04 19:03:00,
2013-05-04 12:08:00,87.0,32.0,29.63,NW,316,4.6,4.6,14,0.00,CLR,,0.00,WeatherDisplay:10.37,2013-05-04 19:08:00,
2013-05-04 12:13:00,87.1,33.8,29.62,NW,307,6.9,6.9,15,0.00,CLR,,0.00,WeatherDisplay:10.37,2013-05-04 19:13:00,
2013-05-04 12:18:00,88.0,31.0,29.62,NW,314,3.5,3.5,13,0.00,CLR,,0.00,WeatherDisplay:10.37,2013-05-04 19:18:00,
2013-05-04 12:23:00,89.0,35.3,29.62,WNW,288,3.5,3.5,15,0.00,CLR,,0.00,WeatherDisplay:10.37,2013-05-04 19:23:00,
2013-05-04 12:28:00,89.5,32.2,29.61,WSW,253,6.9,6.9,13,0.00,CLR,,0.00,WeatherDisplay:10.37,2013-05-04 19:28:00,
2013-05-04 12:33:00,89.3,32.0,29.61,NE,38,5.0,5.0,13,0.00,CLR,,0.00,WeatherDisplay:10.37,2013-05-04 19:33:00,
2013-05-04 12:38:00,88.5,33.2,29.61,NNW,338,9.0,9.0,14,0.00,CLR,,0.00,WeatherDisplay:10.37,2013-05-04 19:38:00,
2013-05-04 12:43:00,88.3,29.2,29.61,NNE,30,6.0,6.0,12,0.00,CLR,,0.00,WeatherDisplay:10.37,2013-05-04 19:43:00,
2013-05-04 12:48:00,88.2,27.0,29.61,NNE,30,7.0,7.0,11,0.00,CLR,,0.00,WeatherDisplay:10.37,2013-05-04 19:48:00,
2013-05-04 12:53:00,88.3,29.2,29.60,ESE,114,4.6,4.6,12,0.00,CLR,,0.00,WeatherDisplay:10.37,2013-05-04 19:53:00,
2013-05-04 12:58:00,89.2,31.9,29.60,NE,44,7.0,7.0,13,0.00,CLR,,0.00,WeatherDisplay:10.37,2013-05-04 19:58:00,
2013-05-04 13:03:00,88.9,27.6,29.60,North,352,6.9,6.9,11,0.00,CLR,,0.00,WeatherDisplay:10.37,2013-05-04 20:03:00,
2013-05-04 13:08:00,89.5,32.2,29.59,NNE,21,7.0,7.0,13,0.00,CLR,,0.00,WeatherDisplay:10.37,2013-05-04 20:08:00,
2013-05-04 13:13:00,89.7,28.2,29.59,SE,134,4.0,4.0,11,0.00,CLR,,0.00,WeatherDisplay:10.37,2013-05-04 20:13:00,
2013-05-04 13:18:00,91.0,26.9,29.59,NE,37,10.0,10.0,10,0.00,CLR,,0.00,WeatherDisplay:10.37,2013-05-04 20:18:00,
2013-05-04 13:23:00,89.8,28.3,29.59,ENE,60,12.0,12.0,11,0.00,CLR,,0.00,WeatherDisplay:10.37,2013-05-04 20:23:00,
2013-05-04 13:28:00,89.1,29.9,29.58,ENE,58,11.5,11.5,12,0.00,CLR,,0.00,WeatherDisplay:10.37,2013-05-04 20:28:00,
2013-05-04 13:33:00,88.6,29.5,29.58,NE,51,3.5,3.5,12,0.00,CLR,,0.00,WeatherDisplay:10.37,2013-05-04 20:33:00,
2013-05-04 13:38:00,89.2,23.0,29.58,WSW,238,5.8,5.8,9,0.00,CLR,,0.00,WeatherDisplay:10.37,2013-05-04 20:38:00,
2013-05-04 13:43:00,89.6,28.1,29.58,NE,47,13.8,13.8,11,0.00,CLR,,0.00,WeatherDisplay:10.37,2013-05-04 20:43:00,
2013-05-04 13:48:00,89.4,25.7,29.58,NNW,343,4.6,4.6,10,0.00,CLR,,0.00,WeatherDisplay:10.37,2013-05-04 20:48:00,
2013-05-04 13:53:00,89.2,23.0,29.57,NNE,16,3.0,3.0,9,0.00,CLR,,0.00,WeatherDisplay:10.37,2013-05-04 20:53:00,
2013-05-04 13:58:00,90.1,23.6,29.57,South,176,3.5,3.5,9,0.00,CLR,,0.00,WeatherDisplay:10.37,2013-05-04 20:58:00,
2013-05-04 14:03:00,91.4,29.5,29.57,SSE,155,2.3,2.3,11,0.00,CLR,,0.00,WeatherDisplay:10.37,2013-05-04 21:03:00,
2013-05-04 14:08:00,91.9,29.9,29.57,ENE,73,3.5,3.5,11,0.00,CLR,,0.00,WeatherDisplay:10.37,2013-05-04 21:08:00,
2013-05-04 14:13:00,92.0,45.2,29.56,SE,142,5.8,5.8,20,0.00,CLR,,0.00,WeatherDisplay:10.37,2013-05-04 21:13:00,
2013-05-04 14:18:00,92.5,44.2,29.56,South,170,8.1,8.1,19,0.00,CLR,,0.00,WeatherDisplay:10.37,2013-05-04 21:18:00,
2013-05-04 14:23:00,92.6,45.7,29.56,SSW,203,7.0,7.0,20,0.00,CLR,,0.00,WeatherDisplay:10.37,2013-05-04 21:23:00,
2013-05-04 14:28:00,91.3,44.6,29.56,SSW,193,11.5,11.5,20,0.00,CLR,,0.00,WeatherDisplay:10.37,2013-05-04 21:28:00,
2013-05-04 14:33:00,90.9,45.6,29.56,South,170,9.2,9.2,21,0.00,CLR,,0.00,WeatherDisplay:10.37,2013-05-04 21:33:00,
2013-05-04 14:38:00,90.4,45.1,29.56,SE,142,10.4,10.4,21,0.00,CLR,,0.00,WeatherDisplay:10.37,2013-05-04 21:38:00,
2013-05-04 14:43:00,90.7,44.1,29.56,SSW,197,8.0,8.0,20,0.00,CLR,,0.00,WeatherDisplay:10.37,2013-05-04 21:43:00,
2013-05-04 14:48:00,90.9,44.3,29.55,South,186,9.2,9.2,20,0.00,CLR,,0.00,WeatherDisplay:10.37,2013-05-04 21:48:00,
2013-05-04 14:53:00,91.1,44.4,29.55,SE,126,6.9,6.9,20,0.00,CLR,,0.00,WeatherDisplay:10.37,2013-05-04 21:53:00,
2013-05-04 14:58:00,90.4,43.9,29.55,SE,141,11.5,11.5,20,0.00,CLR,,0.00,WeatherDisplay:10.37,2013-05-04 21:58:00,
2013-05-04 15:03:00,91.1,44.4,29.55,SW,232,11.5,11.5,20,0.00,CLR,,0.00,WeatherDisplay:10.37,2013-05-04 22:03:00,
2013-05-04 15:08:00,91.5,44.8,29.55,South,170,10.4,10.4,20,0.00,CLR,,0.00,WeatherDisplay:10.37,2013-05-04 22:08:00,
2013-05-04 15:13:00,91.5,46.1,29.55,South,191,10.4,10.4,21,0.00,CLR,,0.00,WeatherDisplay:10.37,2013-05-04 22:13:00,
2013-05-04 15:18:00,91.6,47.4,29.55,SW,236,10.4,10.4,22,0.00,CLR,,0.00,WeatherDisplay:10.37,2013-05-04 22:18:00,
2013-05-04 15:23:00,91.8,46.3,29.55,South,187,5.8,5.8,21,0.00,CLR,,0.00,WeatherDisplay:10.37,2013-05-04 22:23:00,
2013-05-04 15:28:00,91.1,47.0,29.54,SSW,194,6.9,6.9,22,0.00,CLR,,0.00,WeatherDisplay:10.37,2013-05-04 22:28:00,
2013-05-04 15:33:00,91.4,47.2,29.54,SSW,211,6.9,6.9,22,0.00,CLR,,0.00,WeatherDisplay:10.37,2013-05-04 22:33:00,
2013-05-04 15:38:00,91.3,47.1,29.54,SW,229,6.9,6.9,22,0.00,CLR,,0.00,WeatherDisplay:10.37,2013-05-04 22:38:00,
2013-05-04 15:43:00,90.9,45.6,29.54,SE,143,11.5,11.5,21,0.00,CLR,,0.00,WeatherDisplay:10.37,2013-05-04 22:43:00,
2013-05-04 15:48:00,91.0,46.9,29.54,SSE,167,5.8,5.8,22,0.00,CLR,,0.00,WeatherDisplay:10.37,2013-05-04 22:48:00,
2013-05-04 15:53:00,91.2,45.8,29.53,SW,224,6.9,6.9,21,0.00,CLR,,0.00,WeatherDisplay:10.37,2013-05-04 22:53:00,
2013-05-04 15:58:00,90.5,43.9,29.53,West,260,9.2,9.2,20,0.00,CLR,,0.00,WeatherDisplay:10.37,2013-05-04 22:58:00,
2013-05-04 16:03:00,90.5,45.2,29.53,WSW,248,8.0,8.0,21,0.00,CLR,,0.00,WeatherDisplay:10.37,2013-05-04 23:03:00,
2013-05-04 16:08:00,90.4,43.9,29.53,SSW,194,5.8,5.8,20,0.00,CLR,,0.00,WeatherDisplay:10.37,2013-05-04 23:08:00,
2013-05-04 16:13:00,90.1,43.6,29.53,SW,215,6.9,6.9,20,0.00,CLR,,0.00,WeatherDisplay:10.37,2013-05-04 23:13:00,
2013-05-04 16:18:00,89.3,43.0,29.53,SSE,161,5.8,5.8,20,0.00,CLR,,0.00,WeatherDisplay:10.37,2013-05-04 23:18:00,
2013-05-04 16:23:00,88.5,43.6,29.53,SSW,212,11.5,11.5,21,0.00,CLR,,0.00,WeatherDisplay:10.37,2013-05-04 23:23:00,
2013-05-04 16:28:00,87.3,49.2,29.53,SSE,152,5.8,5.8,27,0.00,CLR,,0.00,WeatherDisplay:10.37,2013-05-04 23:28:00,
2013-05-04 16:33:00,86.8,48.8,29.54,NW,305,3.5,3.5,27,0.00,CLR,,0.00,WeatherDisplay:10.37,2013-05-04 23:33:00,
2013-05-04 16:38:00,85.9,50.9,29.53,NW,324,2.3,2.3,30,0.00,CLR,,0.00,WeatherDisplay:10.37,2013-05-04 23:38:00,
2013-05-04 16:43:00,84.8,51.7,29.54,SSE,150,11.5,11.5,32,0.00,CLR,,0.00,WeatherDisplay:10.37,2013-05-04 23:43:00,
2013-05-04 16:48:00,83.2,52.7,29.54,SE,145,6.9,6.9,35,0.00,CLR,,0.00,WeatherDisplay:10.37,2013-05-04 23:48:00,
2013-05-04 16:53:00,82.0,53.2,29.54,ESE,118,3.5,3.5,37,0.00,CLR,,0.00,WeatherDisplay:10.37,2013-05-04 23:53:00,
2013-05-04 16:58:00,80.7,53.4,29.54,ESE,122,2.3,2.8,39,0.00,CLR,,0.00,WeatherDisplay:10.37,2013-05-04 23:58:00,
2013-05-04 17:03:00,80.1,53.6,29.54,SSE,155,5.8,5.8,40,0.00,CLR,,0.00,WeatherDisplay:10.37,2013-05-05 00:03:00,
2013-05-04 17:08:00,79.5,53.1,29.54,SSE,160,5.8,5.8,40,0.00,CLR,,0.00,WeatherDisplay:10.37,2013-05-05 00:08:00,
2013-05-04 17:13:00,78.7,53.7,29.54,SE,125,6.9,6.9,42,0.00,CLR,,0.00,WeatherDisplay:10.37,2013-05-05 00:13:00,
2013-05-04 17:18:00,78.2,53.9,29.54,ESE,114,3.5,3.5,43,0.00,CLR,,0.00,WeatherDisplay:10.37,2013-05-05 00:18:00,
2013-05-04 17:23:00,77.8,52.9,29.54,South,169,9.2,9.2,42,0.00,CLR,,0.00,WeatherDisplay:10.37,2013-05-05 00:23:00,
2013-05-04 17:28:00,77.3,53.1,29.54,ESE,121,3.5,3.5,43,0.00,CLR,,0.00,WeatherDisplay:10.37,2013-05-05 00:28:00,
2013-05-04 17:33:00,76.6,53.1,29.54,SE,124,3.5,3.5,44,0.00,CLR,,0.00,WeatherDisplay:10.37,2013-05-05 00:33:00,
2013-05-04 17:38:00,76.0,53.1,29.54,SE,134,6.9,6.9,45,0.00,CLR,,0.00,WeatherDisplay:10.37,2013-05-05 00:38:00,
2013-05-04 17:43:00,75.5,53.3,29.55,SE,134,5.8,5.8,46,0.00,CLR,,0.00,WeatherDisplay:10.37,2013-05-05 00:43:00,
2013-05-04 17:48:00,74.8,53.8,29.55,SE,139,6.9,6.9,48,0.00,CLR,,0.00,WeatherDisplay:10.37,2013-05-05 00:48:00,
2013-05-04 17:53:00,74.2,53.8,29.55,SE,134,3.5,3.5,49,0.00,CLR,,0.00,WeatherDisplay:10.37,2013-05-05 00:53:00,
2013-05-04 17:58:00,73.9,53.5,29.55,ESE,120,4.6,4.6,49,0.00,CLR,,0.00,WeatherDisplay:10.37,2013-05-05 00:58:00,
2013-05-04 18:03:00,73.4,53.6,29.55,SE,128,3.5,3.5,50,0.00,CLR,,0.00,WeatherDisplay:10.37,2013-05-05 01:03:00,
2013-05-04 18:08:00,72.9,53.7,29.55,SW,218,2.3,2.3,51,0.00,CLR,,0.00,WeatherDisplay:10.37,2013-05-05 01:08:00,
2013-05-04 18:13:00,72.6,54.0,29.56,South,175,11.5,11.5,52,0.00,CLR,,0.00,WeatherDisplay:10.37,2013-05-05 01:13:00,
2013-05-04 18:18:00,71.7,54.2,29.56,SE,124,5.8,5.8,54,0.00,CLR,,0.00,WeatherDisplay:10.37,2013-05-05 01:18:00,
2013-05-04 18:23:00,70.8,53.3,29.55,SSE,150,12.7,12.7,54,0.00,CLR,,0.00,WeatherDisplay:10.37,2013-05-05 01:23:00,
2013-05-04 18:28:00,70.0,53.6,29.55,South,169,12.7,12.7,56,0.00,CLR,,0.00,WeatherDisplay:10.37,2013-05-05 01:28:00,
2013-05-04 18:33:00,69.1,53.7,29.56,South,169,6.0,6.0,58,0.00,CLR,,0.00,WeatherDisplay:10.37,2013-05-05 01:33:00,
2013-05-04 18:38:00,68.6,54.2,29.55,SSE,163,11.0,11.0,60,0.00,CLR,,0.00,WeatherDisplay:10.37,2013-05-05 01:38:00,
2013-05-04 18:43:00,67.8,53.9,29.56,SSE,161,10.4,10.4,61,0.00,CLR,,0.00,WeatherDisplay:10.37,2013-05-05 01:43:00,
2013-05-04 18:48:00,67.0,54.0,29.56,SSE,152,4.6,4.6,63,0.00,CLR,,0.00,WeatherDisplay:10.37,2013-05-05 01:48:00,
2013-05-04 18:53:00,66.8,54.2,29.56,South,180,9.2,9.2,64,0.00,CLR,,0.00,WeatherDisplay:10.37,2013-05-05 01:53:00,
2013-05-04 18:58:00,66.4,54.3,29.56,SE,141,10.4,10.4,65,0.00,CLR,,0.00,WeatherDisplay:10.37,2013-05-05 01:58:00,
2013-05-04 19:03:00,65.8,54.1,29.56,South,173,8.1,8.1,66,0.00,CLR,,0.00,WeatherDisplay:10.37,2013-05-05 02:03:00,
2013-05-04 19:08:00,65.0,54.2,29.57,SSE,160,8.1,8.1,68,0.00,CLR,,0.00,WeatherDisplay:10.37,2013-05-05 02:08:00,
2013-05-04 19:13:00,64.3,54.3,29.57,South,177,6.9,6.9,70,0.00,CLR,,0.00,WeatherDisplay:10.37,2013-05-05 02:13:00,
2013-05-04 19:18:00,63.7,54.5,29.57,SE,143,6.9,6.9,72,0.00,CLR,,0.00,WeatherDisplay:10.37,2013-05-05 02:18:00,
2013-05-04 19:23:00,63.1,54.3,29.57,South,174,12.7,12.7,73,0.00,CLR,,0.00,WeatherDisplay:10.37,2013-05-05 02:23:00,
2013-05-04 19:28:00,62.5,54.5,29.57,SE,135,11.5,11.5,75,0.00,CLR,,0.00,WeatherDisplay:10.37,2013-05-05 02:28:00,
2013-05-04 19:33:00,62.1,54.1,29.57,SSE,160,10.4,10.4,75,0.00,CLR,,0.00,WeatherDisplay:10.37,2013-05-05 02:33:00,
2013-05-04 19:39:00,61.8,54.2,29.57,SSE,160,6.9,6.9,76,0.00,CLR,,0.00,WeatherDisplay:10.37,2013-05-05 02:39:00,
2013-05-04 19:44:00,61.6,54.0,29.58,SSE,148,4.6,4.6,76,0.00,CLR,,0.00,WeatherDisplay:10.37,2013-05-05 02:44:00,
2013-05-04 19:49:00,61.2,53.9,29.58,SSE,147,6.9,6.9,77,0.00,CLR,,0.00,WeatherDisplay:10.37,2013-05-05 02:49:00,
2013-05-04 19:54:00,60.9,54.0,29.58,SSE,149,4.6,4.6,78,0.00,CLR,,0.00,WeatherDisplay:10.37,2013-05-05 02:54:00,
2013-05-04 19:59:00,60.5,54.0,29.58,SE,143,9.2,9.2,79,0.00,CLR,,0.00,WeatherDisplay:10.37,2013-05-05 02:59:00,
2013-05-04 20:04:00,60.3,53.8,29.58,ESE,121,3.5,3.5,79,0.00,CLR,,0.00,WeatherDisplay:10.37,2013-05-05 03:04:00,
2013-05-04 20:09:00,59.9,53.7,29.58,SE,129,8.1,8.1,80,0.00,CLR,,0.00,WeatherDisplay:10.37,2013-05-05 03:09:00,
2013-05-04 20:14:00,59.6,53.4,29.58,SSE,162,4.6,4.6,80,0.00,CLR,,0.00,WeatherDisplay:10.37,2013-05-05 03:14:00,
2013-05-04 20:19:00,59.3,53.5,29.58,SE,131,10.4,10.4,81,0.00,CLR,,0.00,WeatherDisplay:10.37,2013-05-05 03:19:00,
2013-05-04 20:24:00,59.1,53.3,29.58,SSE,148,6.9,6.9,81,0.00,CLR,,0.00,WeatherDisplay:10.37,2013-05-05 03:24:00,
2013-05-04 20:29:00,59.0,53.2,29.58,SSE,167,6.9,6.9,81,0.00,CLR,,0.00,WeatherDisplay:10.37,2013-05-05 03:29:00,
2013-05-04 20:34:00,58.8,53.0,29.58,SE,126,3.5,3.5,81,0.00,CLR,,0.00,WeatherDisplay:10.37,2013-05-05 03:34:00,
2013-05-04 20:39:00,58.6,53.1,29.58,SSE,158,5.8,5.8,82,0.00,CLR,,0.00,WeatherDisplay:10.37,2013-05-05 03:39:00,
2013-05-04 20:44:00,58.4,52.9,29.58,South,188,5.0,5.0,82,0.00,CLR,,0.00,WeatherDisplay:10.37,2013-05-05 03:44:00,
2013-05-04 20:49:00,58.2,53.1,29.58,SSW,202,6.9,6.9,83,0.00,CLR,,0.00,WeatherDisplay:10.37,2013-05-05 03:49:00,
2013-05-04 20:54:00,58.0,52.9,29.58,SSE,160,5.8,5.8,83,0.00,CLR,,0.00,WeatherDisplay:10.37,2013-05-05 03:54:00,
2013-05-04 20:59:00,57.8,52.7,29.58,SE,126,4.6,4.6,83,0.00,CLR,,0.00,WeatherDisplay:10.37,2013-05-05 03:59:00,
2013-05-04 21:01:00,57.7,52.6,29.58,ESE,120,3.5,3.5,83,0.00,CLR,,0.00,WeatherDisplay:10.37,2013-05-05 04:01:00,
2013-05-04 21:02:00,57.6,52.5,29.59,ESE,114,4.6,4.6,83,0.00,CLR,,0.00,WeatherDisplay:10.37,2013-05-05 04:02:00,
2013-05-04 21:06:00,57.5,52.7,29.59,SE,131,3.5,3.5,84,0.00,CLR,,0.00,WeatherDisplay:10.37,2013-05-05 04:06:00,
2013-05-04 21:11:00,57.4,52.6,29.60,ESE,123,3.5,3.5,84,0.00,CLR,,0.00,WeatherDisplay:10.37,2013-05-05 04:11:00,
2013-05-04 21:16:00,57.3,52.5,29.60,South,170,6.9,6.9,84,0.00,CLR,,0.00,WeatherDisplay:10.37,2013-05-05 04:16:00,
2013-05-04 21:21:00,57.2,52.4,29.60,SSE,158,9.2,9.2,84,0.00,CLR,,0.00,WeatherDisplay:10.37,2013-05-05 04:21:00,
2013-05-04 21:26:00,57.2,52.4,29.60,SSE,155,6.9,6.9,84,0.00,CLR,,0.00,WeatherDisplay:10.37,2013-05-05 04:26:00,
2013-05-04 21:31:00,57.2,52.4,29.60,SSE,162,6.9,6.9,84,0.00,CLR,,0.00,WeatherDisplay:10.37,2013-05-05 04:31:00,
2013-05-04 21:36:00,57.2,52.4,29.60,SSE,149,8.1,8.1,84,0.00,CLR,,0.00,WeatherDisplay:10.37,2013-05-05 04:36:00,
2013-05-04 21:41:00,57.0,52.2,29.60,SSE,152,5.0,5.0,84,0.00,CLR,,0.00,WeatherDisplay:10.37,2013-05-05 04:41:00,
2013-05-04 21:46:00,56.8,52.3,29.60,SSE,160,4.6,4.6,85,0.00,CLR,,0.00,WeatherDisplay:10.37,2013-05-05 04:46:00,
2013-05-04 21:51:00,56.7,52.2,29.60,SE,145,3.5,3.5,85,0.00,CLR,,0.00,WeatherDisplay:10.37,2013-05-05 04:51:00,
2013-05-04 21:56:00,56.5,52.0,29.60,SE,135,4.6,4.6,85,0.00,CLR,,0.00,WeatherDisplay:10.37,2013-05-05 04:56:00,
2013-05-04 22:01:00,56.4,51.9,29.60,SE,129,5.8,5.8,85,0.00,CLR,,0.00,WeatherDisplay:10.37,2013-05-05 05:01:00,
2013-05-04 22:06:00,56.3,51.8,29.60,SE,138,3.5,3.5,85,0.00,CLR,,0.00,WeatherDisplay:10.37,2013-05-05 05:06:00,
2013-05-04 22:11:00,56.3,51.8,29.60,SE,129,2.3,2.3,85,0.00,CLR,,0.00,WeatherDisplay:10.37,2013-05-05 05:11:00,
2013-05-04 22:16:00,56.3,52.2,29.60,SE,128,6.9,6.9,86,0.00,CLR,,0.00,WeatherDisplay:10.37,2013-05-05 05:16:00,
2013-05-04 22:21:00,56.2,52.1,29.60,ESE,117,9.2,9.2,86,0.00,CLR,,0.00,WeatherDisplay:10.37,2013-05-05 05:21:00,
2013-05-04 22:26:00,56.2,52.1,29.60,South,181,3.5,3.5,86,0.00,CLR,,0.00,WeatherDisplay:10.37,2013-05-05 05:26:00,
2013-05-04 22:31:00,56.1,52.0,29.60,SE,138,3.5,3.5,86,0.00,CLR,,0.00,WeatherDisplay:10.37,2013-05-05 05:31:00,
2013-05-04 22:36:00,56.0,51.9,29.60,SE,139,2.3,2.3,86,0.00,CLR,,0.00,WeatherDisplay:10.37,2013-05-05 05:36:00,
2013-05-04 22:41:00,55.9,51.8,29.60,SE,124,4.6,4.6,86,0.00,CLR,,0.00,WeatherDisplay:10.37,2013-05-05 05:41:00,
2013-05-04 22:46:00,55.9,51.8,29.60,SE,136,1.1,1.1,86,0.00,CLR,,0.00,WeatherDisplay:10.37,2013-05-05 05:46:00,
2013-05-04 22:51:00,55.8,51.7,29.60,ESE,118,3.5,3.5,86,0.00,CLR,,0.00,WeatherDisplay:10.37,2013-05-05 05:51:00,
2013-05-04 22:56:00,55.7,51.6,29.60,ESE,112,4.0,4.0,86,0.00,CLR,,0.00,WeatherDisplay:10.37,2013-05-05 05:56:00,
2013-05-04 23:01:00,55.6,51.5,29.60,SE,139,2.3,2.3,86,0.00,CLR,,0.00,WeatherDisplay:10.37,2013-05-05 06:01:00,
2013-05-04 23:06:00,55.5,51.4,29.61,SSE,154,3.5,3.5,86,0.00,CLR,,0.00,WeatherDisplay:10.37,2013-05-05 06:06:00,
2013-05-04 23:11:00,55.5,51.4,29.60,SSE,148,1.1,1.1,86,0.00,CLR,,0.00,WeatherDisplay:10.37,2013-05-05 06:11:00,
2013-05-04 23:16:00,55.4,51.3,29.61,South,179,1.1,1.1,86,0.00,CLR,,0.00,WeatherDisplay:10.37,2013-05-05 06:16:00,
2013-05-04 23:21:00,55.3,51.2,29.61,SE,131,3.5,3.5,86,0.00,CLR,,0.00,WeatherDisplay:10.37,2013-05-05 06:21:00,
2013-05-04 23:26:00,55.2,51.1,29.61,SSE,149,3.5,3.5,86,0.00,CLR,,0.00,WeatherDisplay:10.37,2013-05-05 06:26:00,
2013-05-04 23:31:00,55.2,51.1,29.61,SW,233,1.1,1.1,86,0.00,CLR,,0.00,WeatherDisplay:10.37,2013-05-05 06:31:00,
2013-05-04 23:36:00,55.2,51.4,29.61,WSW,246,2.3,2.3,87,0.00,CLR,,0.00,WeatherDisplay:10.37,2013-05-05 06:36:00,
2013-05-04 23:41:00,55.1,51.3,29.61,SW,229,1.1,1.1,87,0.00,CLR,,0.00,WeatherDisplay:10.37,2013-05-05 06:41:00,
2013-05-04 23:46:00,55.0,51.2,29.61,SW,229,1.1,1.1,87,0.00,CLR,,0.00,WeatherDisplay:10.37,2013-05-05 06:46:00,
2013-05-04 23:51:00,55.0,51.2,29.61,SW,221,2.3,2.3,87,0.00,CLR,,0.00,WeatherDisplay:10.37,2013-05-05 06:51:00,
2013-05-04 23:56:00,54.9,51.1,29.62,SW,231,2.3,2.3,87,0.00,CLR,,0.00,WeatherDisplay:10.37,2013-05-05 06:56:00,